User: anonymous   Login
Location: Ca�n Batista
(41.4099°N, 1.7752°E)
Time: 15:48:55
(UTC+00:00)
Language:

ARGOS - Orbit

View from above orbital plane
View from above orbital plane
View from above satellite
View from above satellite

Ground track
Ground track

The orbit data is extracted from the following two-line orbital elements,

1 25634U 99008A   21132.10314527 -.00000005  00000-0  17354-4 0  9998
2 25634  98.4218 161.5726 0011062  49.7287 310.4856 14.19394296150594
Epoch (UTC): 12 May 2021 02:28:31
Eccentricity: 0.0011062
inclination: 98.4218°
perigee height: 819 km
apogee height: 835 km
right ascension of ascending node: 161.5726°
argument of perigee: 49.7287°
revolutions per day: 14.19394296
mean anomaly at epoch: 310.4856°
orbit number at epoch: 15059

The dashed part of the orbit path shows where the satellite is in the earth's shadow,  

DLR